GIA140 WIII-WITT

Flight info

Callsign GIA140
Flight time 2h 20m
Altitude 34000
Route GOMEL T10 OPUNG
Aircraft B738/M-SDE2E3FGHIRWY/LB1

Departure

Time 2026-04-16 23:15
Airport Soekarno-Hatta International Airport (WIII)

Arrival

Time 2026-04-17 01:35
Airport Sultan Iskandar Muda International Airport (WITT)
Time Latitude Longitude Altitude Speed Heading
2026-04-16 22:49 -6.11647 106.66697 37 ft 0 kts 167°
2026-04-16 23:05 -6.11632 106.66693 35 ft 4 kts 154°
2026-04-16 23:05 -6.11608 106.66682 33 ft 4 kts 158°
2026-04-16 23:06 -6.11588 106.66674 36 ft 4 kts 159°
2026-04-16 23:06 -6.11566 106.66671 36 ft 4 kts 213°
2026-04-16 23:06 -6.11555 106.66685 33 ft 4 kts 248°
2026-04-16 23:06 -6.11551 106.66697 35 ft 0 kts 248°
2026-04-16 23:09 -6.11553 106.66690 37 ft 3 kts 248°
2026-04-16 23:10 -6.11567 106.66657 37 ft 8 kts 248°
2026-04-16 23:10 -6.11593 106.66590 37 ft 12 kts 248°
2026-04-16 23:10 -6.11625 106.66510 37 ft 12 kts 248°
2026-04-16 23:10 -6.11636 106.66484 37 ft 2 kts 248°
2026-04-16 23:11 -6.11645 106.66459 37 ft 6 kts 253°
2026-04-16 23:11 -6.11629 106.66409 36 ft 10 kts 317°
2026-04-16 23:11 -6.11552 106.66375 37 ft 15 kts 338°
2026-04-16 23:11 -6.11444 106.66332 37 ft 18 kts 338°
2026-04-16 23:12 -6.11360 106.66303 38 ft 10 kts 359°
2026-04-16 23:12 -6.11314 106.66345 38 ft 9 kts 68°
2026-04-16 23:12 -6.11290 106.66405 38 ft 9 kts 68°
2026-04-16 23:12 -6.11264 106.66471 38 ft 11 kts 68°
2026-04-16 23:13 -6.11231 106.66555 36 ft 15 kts 68°
2026-04-16 23:13 -6.11188 106.66664 36 ft 19 kts 68°
2026-04-16 23:13 -6.11135 106.66796 38 ft 22 kts 68°
2026-04-16 23:13 -6.11081 106.66929 37 ft 11 kts 68°
2026-04-16 23:14 -6.11023 106.66976 38 ft 11 kts
2026-04-16 23:14 -6.10956 106.66946 37 ft 11 kts 312°
2026-04-16 23:14 -6.10937 106.66874 37 ft 11 kts 291°
2026-04-16 23:14 -6.10936 106.66804 35 ft 10 kts 250°
2026-04-16 23:15 -6.11230 106.66067 37 ft 129 kts 249°
2026-04-16 23:15 -6.11645 106.65049 223 ft 174 kts 246°
2026-04-16 23:15 -6.12072 106.63918 1072 ft 175 kts 251°
2026-04-16 23:16 -6.12142 106.62621 1531 ft 200 kts 287°
2026-04-16 23:16 -6.11682 106.61200 1788 ft 227 kts 287°
2026-04-16 23:16 -6.11211 106.59615 2154 ft 243 kts 287°
2026-04-16 23:16 -6.10724 106.57942 2521 ft 260 kts 286°
2026-04-16 23:17 -6.10207 106.56154 3088 ft 272 kts 286°
2026-04-16 23:17 -6.09685 106.54350 3927 ft 272 kts 286°
2026-04-16 23:17 -6.09154 106.52521 4762 ft 275 kts 286°
2026-04-16 23:17 -6.08615 106.50665 5525 ft 278 kts 286°
2026-04-16 23:18 -6.07909 106.48847 6273 ft 283 kts 304°
2026-04-16 23:18 -6.06517 106.47460 7014 ft 284 kts 326°
2026-04-16 23:18 -6.04852 106.46376 7726 ft 287 kts 328°
2026-04-16 23:18 -6.03135 106.45322 8456 ft 290 kts 329°
2026-04-16 23:19 -6.01400 106.44265 9197 ft 293 kts 329°
2026-04-16 23:19 -5.99647 106.43190 9912 ft 297 kts 328°
2026-04-16 23:19 -5.97865 106.42092 10407 ft 309 kts 328°
2026-04-16 23:19 -5.95969 106.40916 10557 ft 331 kts 328°
2026-04-16 23:20 -5.93950 106.39659 10723 ft 352 kts 328°
2026-04-16 23:20 -5.91826 106.38332 11029 ft 365 kts 328°
2026-04-16 23:20 -5.89681 106.36990 11535 ft 370 kts 328°
2026-04-16 23:20 -5.87491 106.35619 12170 ft 372 kts 328°
2026-04-16 23:21 -5.85287 106.34239 12767 ft 375 kts 328°
2026-04-16 23:21 -5.83061 106.32845 13325 ft 379 kts 328°
2026-04-16 23:21 -5.80813 106.31437 13867 ft 382 kts 328°
2026-04-16 23:21 -5.78548 106.30019 14382 ft 385 kts 328°
2026-04-16 23:22 -5.76266 106.28590 14889 ft 388 kts 328°
2026-04-16 23:22 -5.73968 106.27151 15393 ft 391 kts 328°
2026-04-16 23:22 -5.71731 106.25579 15887 ft 394 kts 323°
2026-04-16 23:22 -5.69568 106.23859 16369 ft 397 kts 321°
2026-04-16 23:23 -5.67424 106.22089 16852 ft 400 kts 321°
2026-04-16 23:23 -5.65265 106.20306 17343 ft 403 kts 321°
2026-04-16 23:23 -5.63083 106.18522 17811 ft 406 kts 321°
2026-04-16 23:23 -5.60872 106.16735 18251 ft 409 kts 322°
2026-04-16 23:24 -5.58641 106.14944 18629 ft 412 kts 322°
2026-04-16 23:24 -5.56389 106.13146 19021 ft 415 kts 322°
2026-04-16 23:24 -5.54120 106.11337 19402 ft 418 kts 322°
2026-04-16 23:24 -5.51837 106.09518 19781 ft 421 kts 322°
2026-04-16 23:25 -5.49539 106.07687 20156 ft 423 kts 322°
2026-04-16 23:25 -5.47256 106.05866 20536 ft 425 kts 322°
2026-04-16 23:25 -5.44933 106.04014 20894 ft 428 kts 322°
2026-04-16 23:25 -5.42591 106.02148 21246 ft 431 kts 322°
2026-04-16 23:26 -5.40235 106.00275 21603 ft 433 kts 322°
2026-04-16 23:26 -5.37864 105.98395 21949 ft 436 kts 322°
2026-04-16 23:26 -5.35477 105.96504 22270 ft 439 kts 322°
2026-04-16 23:26 -5.33076 105.94602 22610 ft 441 kts 322°
2026-04-16 23:27 -5.30662 105.92688 22942 ft 443 kts 322°
2026-04-16 23:27 -5.28228 105.90758 23245 ft 446 kts 322°
2026-04-16 23:27 -5.25782 105.88818 23540 ft 449 kts 322°
2026-04-16 23:27 -5.23330 105.86873 23808 ft 450 kts 322°
2026-04-16 23:28 -5.20872 105.84924 24093 ft 452 kts 322°
2026-04-16 23:28 -5.18401 105.82966 24343 ft 453 kts 323°
2026-04-16 23:28 -5.15876 105.81062 24595 ft 455 kts 325°
2026-04-16 23:28 -5.13291 105.79217 24846 ft 457 kts 326°
2026-04-16 23:29 -5.10678 105.77393 25101 ft 458 kts 326°
2026-04-16 23:29 -5.08052 105.75565 25350 ft 460 kts 326°
2026-04-16 23:29 -5.05418 105.73724 25587 ft 462 kts 326°
2026-04-16 23:29 -5.02779 105.71867 25811 ft 464 kts 326°
2026-04-16 23:30 -5.00168 105.70020 26039 ft 466 kts 326°
2026-04-16 23:30 -4.97515 105.68137 26280 ft 467 kts 326°
2026-04-16 23:30 -4.94861 105.66249 26514 ft 469 kts 326°
2026-04-16 23:30 -4.92196 105.64352 26730 ft 471 kts 326°
2026-04-16 23:31 -4.89517 105.62446 26945 ft 472 kts 326°
2026-04-16 23:31 -4.86831 105.60535 27146 ft 474 kts 326°
2026-04-16 23:31 -4.84133 105.58616 27374 ft 476 kts 326°
2026-04-16 23:31 -4.81427 105.56691 27589 ft 477 kts 326°
2026-04-16 23:32 -4.78715 105.54763 27792 ft 479 kts 326°
2026-04-16 23:32 -4.75994 105.52829 27985 ft 480 kts 326°
2026-04-16 23:32 -4.73264 105.50889 28174 ft 482 kts 326°
2026-04-16 23:32 -4.70523 105.48941 28370 ft 483 kts 326°
2026-04-16 23:33 -4.67772 105.46986 28563 ft 485 kts 326°
2026-04-16 23:33 -4.65050 105.45052 28748 ft 486 kts 326°
2026-04-16 23:33 -4.62286 105.43089 28920 ft 487 kts 326°
2026-04-16 23:33 -4.59518 105.41122 29186 ft 487 kts 326°
2026-04-16 23:34 -4.56757 105.39161 29503 ft 485 kts 326°
2026-04-16 23:34 -4.54005 105.37205 29805 ft 484 kts 326°
2026-04-16 23:34 -4.51254 105.35252 30039 ft 484 kts 326°
2026-04-16 23:34 -4.49394 105.33931 30179 ft 484 kts 326°
2026-04-16 23:35 -4.46673 105.31999 30407 ft 484 kts 326°
2026-04-16 23:35 -4.43928 105.30050 30670 ft 483 kts 326°
2026-04-16 23:35 -4.41191 105.28107 30945 ft 481 kts 326°
2026-04-16 23:35 -4.38460 105.26168 31199 ft 480 kts 326°
2026-04-16 23:36 -4.35732 105.24231 31438 ft 480 kts 326°
2026-04-16 23:36 -4.33008 105.22298 31675 ft 480 kts 326°
2026-04-16 23:36 -4.30285 105.20365 31934 ft 479 kts 326°
2026-04-16 23:36 -4.27569 105.18438 32192 ft 478 kts 326°
2026-04-16 23:37 -4.24850 105.16509 32456 ft 477 kts 326°
2026-04-16 23:37 -4.22142 105.14587 32700 ft 477 kts 326°
2026-04-16 23:37 -4.19440 105.12670 32951 ft 476 kts 326°
2026-04-16 23:37 -4.16741 105.10754 33209 ft 475 kts 326°
2026-04-16 23:38 -4.14075 105.08863 33452 ft 475 kts 326°
2026-04-16 23:38 -4.11374 105.06947 33698 ft 474 kts 326°
2026-04-16 23:38 -4.08738 105.04951 33876 ft 476 kts 320°
2026-04-16 23:39 -4.03836 105.00450 33880 ft 478 kts 317°
2026-04-16 23:39 -3.99061 104.95851 33871 ft 475 kts 317°
2026-04-16 23:40 -3.94283 104.91299 33872 ft 473 kts 318°
2026-04-16 23:40 -3.89498 104.86802 33880 ft 471 kts 318°
2026-04-16 23:41 -3.84735 104.82348 33883 ft 471 kts 318°
2026-04-16 23:41 -3.79945 104.77872 33882 ft 471 kts 318°
2026-04-16 23:42 -3.75146 104.73386 33880 ft 472 kts 318°
2026-04-16 23:42 -3.70341 104.68892 33878 ft 474 kts 318°
2026-04-16 23:43 -3.65517 104.64382 33876 ft 475 kts 318°
2026-04-16 23:43 -3.60677 104.59857 33878 ft 476 kts 318°
2026-04-16 23:44 -3.55863 104.55357 33880 ft 477 kts 318°
2026-04-16 23:44 -3.51007 104.50818 33876 ft 477 kts 318°
2026-04-16 23:45 -3.46149 104.46278 33882 ft 478 kts 318°
2026-04-16 23:45 -3.41292 104.41740 33879 ft 477 kts 318°
2026-04-16 23:46 -3.36442 104.37209 33878 ft 477 kts 318°
2026-04-16 23:46 -3.31620 104.32705 33882 ft 476 kts 318°
2026-04-16 23:47 -3.26780 104.28185 33874 ft 476 kts 318°
2026-04-16 23:47 -3.21939 104.23665 33880 ft 475 kts 318°
2026-04-16 23:48 -3.17106 104.19152 33876 ft 475 kts 318°
2026-04-16 23:48 -3.12269 104.14637 33878 ft 475 kts 318°
2026-04-16 23:49 -3.07433 104.10122 33884 ft 475 kts 318°
2026-04-16 23:49 -3.02628 104.05638 33881 ft 475 kts 318°
2026-04-16 23:50 -2.97789 104.01122 33880 ft 475 kts 318°
2026-04-16 23:50 -2.92949 103.96607 33881 ft 475 kts 318°
2026-04-16 23:51 -2.88110 103.92092 33885 ft 476 kts 318°
2026-04-16 23:51 -2.83268 103.87575 33886 ft 476 kts 318°
2026-04-16 23:52 -2.78421 103.83054 33885 ft 476 kts 318°
2026-04-16 23:52 -2.73603 103.78561 33887 ft 476 kts 318°
2026-04-16 23:53 -2.68748 103.74033 33887 ft 476 kts 318°
2026-04-16 23:53 -2.63901 103.69513 33891 ft 476 kts 318°
2026-04-16 23:54 -2.59054 103.64995 33889 ft 476 kts 318°
2026-04-16 23:54 -2.54204 103.60473 33892 ft 476 kts 318°
2026-04-16 23:55 -2.49357 103.55955 33893 ft 476 kts 318°
2026-04-16 23:55 -2.44511 103.51438 33894 ft 476 kts 318°
2026-04-16 23:56 -2.39670 103.46925 33897 ft 476 kts 318°
2026-04-16 23:56 -2.34828 103.42412 33900 ft 476 kts 318°
2026-04-16 23:57 -2.29989 103.37901 33893 ft 475 kts 317°
2026-04-16 23:57 -2.25160 103.33392 33904 ft 475 kts 317°
2026-04-16 23:58 -2.20333 103.28884 33903 ft 474 kts 317°
2026-04-16 23:58 -2.15542 103.24409 33904 ft 474 kts 317°
2026-04-16 23:59 -2.10723 103.19910 33902 ft 474 kts 317°
2026-04-16 23:59 -2.05913 103.15419 33904 ft 473 kts 317°
2026-04-17 00:00 -2.01108 103.10934 33901 ft 472 kts 317°
2026-04-17 00:00 -1.96310 103.06455 33914 ft 471 kts 317°
2026-04-17 00:01 -1.91515 103.01979 33910 ft 471 kts 317°
2026-04-17 00:01 -1.86733 102.97515 33906 ft 470 kts 317°
2026-04-17 00:02 -1.81956 102.93058 33911 ft 469 kts 317°
2026-04-17 00:02 -1.77186 102.88606 33911 ft 469 kts 317°
2026-04-17 00:03 -1.72423 102.84161 33912 ft 468 kts 317°
2026-04-17 00:03 -1.67663 102.79719 33911 ft 468 kts 317°
2026-04-17 00:04 -1.62906 102.75280 33914 ft 468 kts 317°
2026-04-17 00:04 -1.58146 102.70838 33913 ft 468 kts 317°
2026-04-17 00:05 -1.53379 102.66390 33920 ft 469 kts 317°
2026-04-17 00:05 -1.48615 102.61941 33914 ft 469 kts 317°
2026-04-17 00:06 -1.43838 102.57478 33913 ft 470 kts 317°
2026-04-17 00:06 -1.39057 102.53011 33908 ft 471 kts 317°
2026-04-17 00:07 -1.34271 102.48540 33917 ft 471 kts 317°
2026-04-17 00:07 -1.29482 102.44067 33913 ft 472 kts 317°
2026-04-17 00:08 -1.24686 102.39587 33909 ft 472 kts 317°
2026-04-17 00:08 -1.19890 102.35107 33912 ft 472 kts 317°
2026-04-17 00:09 -1.15093 102.30626 33910 ft 472 kts 317°
2026-04-17 00:09 -1.10296 102.26146 33907 ft 472 kts 317°
2026-04-17 00:10 -1.05536 102.21701 33902 ft 471 kts 317°
2026-04-17 00:10 -1.00744 102.17226 33904 ft 471 kts 317°
2026-04-17 00:11 -0.95957 102.12756 33903 ft 471 kts 317°
2026-04-17 00:11 -0.91303 102.08410 33901 ft 471 kts 317°
2026-04-17 00:12 -0.86520 102.03944 33903 ft 471 kts 317°
2026-04-17 00:12 -0.81737 101.99478 33894 ft 471 kts 317°
2026-04-17 00:13 -0.76945 101.95004 33893 ft 470 kts 317°
2026-04-17 00:13 -0.72159 101.90536 33889 ft 470 kts 317°
2026-04-17 00:14 -0.67408 101.86099 33892 ft 470 kts 317°
2026-04-17 00:14 -0.62628 101.81637 33883 ft 470 kts 317°
2026-04-17 00:15 -0.57840 101.77166 33881 ft 471 kts 317°
2026-04-17 00:15 -0.53047 101.72692 33883 ft 471 kts 317°
2026-04-17 00:16 -0.48256 101.68219 33888 ft 471 kts 317°
2026-04-17 00:16 -0.43465 101.63748 33875 ft 471 kts 317°
2026-04-17 00:17 -0.38672 101.59273 33878 ft 472 kts 317°
2026-04-17 00:17 -0.33875 101.54795 33874 ft 472 kts 317°
2026-04-17 00:18 -0.29076 101.50315 33878 ft 472 kts 317°
2026-04-17 00:18 -0.24301 101.45858 33871 ft 472 kts 317°
2026-04-17 00:19 -0.19499 101.41376 33863 ft 473 kts 317°
2026-04-17 00:19 -0.14685 101.36882 33873 ft 473 kts 317°
2026-04-17 00:20 -0.09876 101.32393 33868 ft 473 kts 317°
2026-04-17 00:20 -0.05067 101.27905 33873 ft 473 kts 317°
2026-04-17 00:21 -0.00259 101.23416 33868 ft 473 kts 317°
2026-04-17 00:21 0.04549 101.18928 33872 ft 473 kts 317°
2026-04-17 00:22 0.11755 101.12202 33870 ft 472 kts 317°
2026-04-17 00:22 0.16557 101.07720 33867 ft 472 kts 317°
2026-04-17 00:23 0.21322 101.03272 33866 ft 471 kts 317°
2026-04-17 00:23 0.26114 100.98798 33866 ft 471 kts 317°
2026-04-17 00:24 0.30898 100.94333 33873 ft 470 kts 317°
2026-04-17 00:24 0.35673 100.89875 33869 ft 469 kts 317°
2026-04-17 00:25 0.40442 100.85424 33869 ft 469 kts 317°
2026-04-17 00:25 0.45201 100.80981 33884 ft 468 kts 317°
2026-04-17 00:26 0.49953 100.76545 33878 ft 467 kts 317°
2026-04-17 00:26 0.54703 100.72111 33878 ft 467 kts 317°
2026-04-17 00:27 0.59448 100.67681 33881 ft 467 kts 317°
2026-04-17 00:27 0.64191 100.63253 33874 ft 467 kts 317°
2026-04-17 00:28 0.68909 100.58848 33885 ft 466 kts 317°
2026-04-17 00:28 0.73653 100.54419 33881 ft 467 kts 317°
2026-04-17 00:29 0.78401 100.49986 33880 ft 467 kts 317°
2026-04-17 00:29 0.83150 100.45552 33889 ft 467 kts 317°
2026-04-17 00:30 0.87898 100.41118 33889 ft 467 kts 317°
2026-04-17 00:30 0.92647 100.36683 33889 ft 468 kts 317°
2026-04-17 00:31 0.97375 100.32268 33894 ft 468 kts 317°
2026-04-17 00:31 1.02131 100.27827 33889 ft 468 kts 317°
2026-04-17 00:32 1.06894 100.23379 33904 ft 468 kts 317°
2026-04-17 00:32 1.11658 100.18930 33896 ft 469 kts 317°
2026-04-17 00:33 1.15623 100.15227 33898 ft 469 kts 317°
2026-04-17 00:33 1.20387 100.10778 33904 ft 469 kts 317°
2026-04-17 00:34 1.25152 100.06326 33905 ft 469 kts 317°
2026-04-17 00:34 1.29920 100.01872 33902 ft 469 kts 317°
2026-04-17 00:35 1.34693 99.97414 33909 ft 469 kts 317°
2026-04-17 00:35 1.39464 99.92956 33914 ft 469 kts 317°
2026-04-17 00:36 1.44233 99.88500 33907 ft 469 kts 317°
2026-04-17 00:36 1.49000 99.84047 33910 ft 469 kts 317°
2026-04-17 00:37 1.53766 99.79593 33917 ft 469 kts 317°
2026-04-17 00:37 1.58527 99.75144 33924 ft 468 kts 317°
2026-04-17 00:38 1.63288 99.70694 33924 ft 468 kts 317°
2026-04-17 00:38 1.68051 99.66242 33929 ft 468 kts 317°
2026-04-17 00:39 1.72770 99.61830 33940 ft 467 kts 317°
2026-04-17 00:39 1.77519 99.57392 33954 ft 467 kts 317°
2026-04-17 00:40 1.82275 99.52964 33956 ft 467 kts 317°
2026-04-17 00:40 1.87032 99.48545 33969 ft 467 kts 317°
2026-04-17 00:41 1.91784 99.44129 33979 ft 466 kts 317°
2026-04-17 00:41 1.96532 99.39712 33979 ft 466 kts 317°
2026-04-17 00:42 2.01280 99.35294 33985 ft 466 kts 317°
2026-04-17 00:42 2.06029 99.30876 33992 ft 466 kts 317°
2026-04-17 00:43 2.10772 99.26462 33998 ft 467 kts 317°
2026-04-17 00:43 2.15529 99.22035 34003 ft 467 kts 317°
2026-04-17 00:44 2.20285 99.17608 34007 ft 467 kts 317°
2026-04-17 00:44 2.25052 99.13172 34007 ft 468 kts 317°
2026-04-17 00:45 2.29817 99.08736 34009 ft 468 kts 317°
2026-04-17 00:45 2.34584 99.04298 34008 ft 468 kts 317°
2026-04-17 00:46 2.39354 98.99856 34006 ft 469 kts 317°
2026-04-17 00:46 2.44092 98.95445 34007 ft 468 kts 317°
2026-04-17 00:47 2.48863 98.91002 34006 ft 469 kts 317°
2026-04-17 00:47 2.53635 98.86557 34002 ft 469 kts 317°
2026-04-17 00:48 2.58406 98.82114 34006 ft 469 kts 317°
2026-04-17 00:48 2.63183 98.77664 33995 ft 469 kts 317°
2026-04-17 00:49 2.67948 98.73224 33995 ft 468 kts 317°
2026-04-17 00:49 2.72717 98.68781 33987 ft 468 kts 317°
2026-04-17 00:50 2.77474 98.64348 33988 ft 467 kts 317°
2026-04-17 00:50 2.82226 98.59920 33985 ft 467 kts 317°
2026-04-17 00:51 2.86973 98.55495 33978 ft 466 kts 317°
2026-04-17 00:51 2.91690 98.51098 33981 ft 466 kts 317°
2026-04-17 00:52 2.96433 98.46676 33971 ft 466 kts 317°
2026-04-17 00:52 3.01182 98.42248 33968 ft 466 kts 317°
2026-04-17 00:53 3.05931 98.37820 33962 ft 467 kts 317°
2026-04-17 00:53 3.10682 98.33388 33958 ft 467 kts 317°
2026-04-17 00:54 3.15434 98.28956 33957 ft 467 kts 317°
2026-04-17 00:54 3.20156 98.24551 33954 ft 468 kts 317°
2026-04-17 00:55 3.24918 98.20107 33947 ft 468 kts 317°
2026-04-17 00:55 3.29679 98.15665 33947 ft 468 kts 317°
2026-04-17 00:56 3.34445 98.11217 33951 ft 468 kts 317°
2026-04-17 00:56 3.39210 98.06769 33949 ft 468 kts 317°
2026-04-17 00:57 3.43950 98.02344 33952 ft 468 kts 317°
2026-04-17 00:57 3.48718 97.97893 33961 ft 468 kts 317°
2026-04-17 00:58 3.53485 97.93442 33970 ft 468 kts 317°
2026-04-17 00:58 3.58252 97.88989 33979 ft 468 kts 317°
2026-04-17 00:59 3.63019 97.84537 33987 ft 468 kts 317°
2026-04-17 00:59 3.67779 97.80090 33994 ft 468 kts 317°
2026-04-17 01:00 3.72534 97.75647 34000 ft 468 kts 317°
2026-04-17 01:00 3.77285 97.71207 34010 ft 467 kts 317°
2026-04-17 01:01 3.82041 97.66762 34017 ft 467 kts 317°
2026-04-17 01:01 3.86786 97.62326 34017 ft 467 kts 317°
2026-04-17 01:02 3.91529 97.57892 34021 ft 466 kts 317°
2026-04-17 01:02 3.96235 97.53491 34019 ft 466 kts 317°
2026-04-17 01:03 4.00970 97.49062 34021 ft 465 kts 317°
2026-04-17 01:03 4.05699 97.44638 34022 ft 465 kts 317°
2026-04-17 01:04 4.10424 97.40218 34020 ft 465 kts 317°
2026-04-17 01:04 4.15144 97.35801 34017 ft 464 kts 317°
2026-04-17 01:05 4.19860 97.31387 34014 ft 464 kts 317°
2026-04-17 01:05 4.24572 97.26977 34019 ft 463 kts 317°
2026-04-17 01:06 4.29281 97.22568 34011 ft 462 kts 317°
2026-04-17 01:06 4.33951 97.18195 34014 ft 462 kts 316°
2026-04-17 01:07 4.38645 97.13798 34016 ft 461 kts 317°
2026-04-17 01:07 4.43331 97.09408 34010 ft 461 kts 317°
2026-04-17 01:08 4.48017 97.05014 34008 ft 461 kts 316°
2026-04-17 01:08 4.50363 97.02818 33829 ft 463 kts 316°
2026-04-17 01:08 4.52650 97.00549 33558 ft 462 kts 308°
2026-04-17 01:09 4.54475 96.97917 33316 ft 457 kts 302°
2026-04-17 01:09 4.56144 96.95230 33053 ft 453 kts 301°
2026-04-17 01:09 4.57776 96.92533 32811 ft 451 kts 301°
2026-04-17 01:09 4.59404 96.89848 32567 ft 450 kts 301°
2026-04-17 01:10 4.61038 96.87179 32315 ft 449 kts 301°
2026-04-17 01:10 4.62682 96.84524 32074 ft 447 kts 301°
2026-04-17 01:10 4.64330 96.81885 31838 ft 446 kts 301°
2026-04-17 01:10 4.65983 96.79251 31602 ft 446 kts 301°
2026-04-17 01:11 4.67634 96.76626 31364 ft 445 kts 301°
2026-04-17 01:11 4.69283 96.74006 31132 ft 444 kts 301°
2026-04-17 01:11 4.70929 96.71391 30892 ft 443 kts 302°
2026-04-17 01:11 4.72572 96.68778 30673 ft 442 kts 301°
2026-04-17 01:12 4.74213 96.66169 30445 ft 442 kts 301°
2026-04-17 01:12 4.75830 96.63598 30218 ft 441 kts 301°
2026-04-17 01:12 4.77461 96.61003 29982 ft 440 kts 301°
2026-04-17 01:12 4.79090 96.58410 29717 ft 439 kts 301°
2026-04-17 01:13 4.80715 96.55824 29451 ft 438 kts 302°
2026-04-17 01:13 4.82336 96.53244 29190 ft 436 kts 301°
2026-04-17 01:13 4.83950 96.50673 28932 ft 435 kts 301°
2026-04-17 01:13 4.85557 96.48115 28678 ft 433 kts 301°
2026-04-17 01:14 4.87159 96.45564 28416 ft 431 kts 301°
2026-04-17 01:14 4.88754 96.43024 28158 ft 429 kts 302°
2026-04-17 01:14 4.90340 96.40499 27907 ft 427 kts 302°
2026-04-17 01:14 4.91923 96.37977 27665 ft 426 kts 302°
2026-04-17 01:15 4.93497 96.35469 27413 ft 424 kts 302°
2026-04-17 01:15 4.95067 96.32968 27170 ft 423 kts 302°
2026-04-17 01:15 4.96629 96.30478 26927 ft 421 kts 302°
2026-04-17 01:15 4.98185 96.27999 26686 ft 420 kts 302°
2026-04-17 01:16 4.99736 96.25527 26356 ft 416 kts 302°
2026-04-17 01:16 5.01270 96.23082 25969 ft 412 kts 302°
2026-04-17 01:16 5.02791 96.20656 25556 ft 410 kts 302°
2026-04-17 01:16 5.04286 96.18272 25114 ft 409 kts 302°
2026-04-17 01:17 5.05817 96.15831 24679 ft 407 kts 302°
2026-04-17 01:17 5.07305 96.13459 24249 ft 406 kts 302°
2026-04-17 01:17 5.08797 96.11043 23685 ft 409 kts 301°
2026-04-17 01:17 5.10269 96.08600 23156 ft 409 kts 301°
2026-04-17 01:18 5.11729 96.06158 22679 ft 407 kts 301°
2026-04-17 01:18 5.13178 96.03734 22230 ft 404 kts 301°
2026-04-17 01:18 5.14618 96.01327 21793 ft 401 kts 301°
2026-04-17 01:18 5.16052 95.98937 21368 ft 398 kts 301°
2026-04-17 01:19 5.17475 95.96569 20952 ft 395 kts 301°
2026-04-17 01:19 5.18892 95.94211 20526 ft 393 kts 301°
2026-04-17 01:19 5.20298 95.91871 20111 ft 390 kts 301°
2026-04-17 01:19 5.21698 95.89542 19688 ft 389 kts 301°
2026-04-17 01:20 5.22873 95.87590 19334 ft 387 kts 301°
2026-04-17 01:20 5.23573 95.86423 19114 ft 386 kts 301°
2026-04-17 01:20 5.25144 95.84259 18662 ft 381 kts 316°
2026-04-17 01:21 5.27242 95.82720 18300 ft 370 kts 335°
2026-04-17 01:21 5.29591 95.81764 17908 ft 360 kts 340°
2026-04-17 01:21 5.31926 95.80918 17476 ft 353 kts 341°
2026-04-17 01:21 5.34188 95.80115 17089 ft 346 kts 341°
2026-04-17 01:22 5.36431 95.79317 16707 ft 339 kts 341°
2026-04-17 01:22 5.38630 95.78525 16348 ft 333 kts 341°
2026-04-17 01:22 5.40817 95.77735 15998 ft 335 kts 341°
2026-04-17 01:22 5.43026 95.76934 15637 ft 339 kts 341°
2026-04-17 01:23 5.45268 95.76115 15265 ft 346 kts 341°
2026-04-17 01:23 5.47544 95.75279 14852 ft 350 kts 341°
2026-04-17 01:23 5.49823 95.74440 14476 ft 349 kts 341°
2026-04-17 01:23 5.52100 95.73601 14084 ft 348 kts 341°
2026-04-17 01:24 5.54372 95.72764 13689 ft 348 kts 341°
2026-04-17 01:24 5.55878 95.72209 13409 ft 348 kts 341°
2026-04-17 01:24 5.58149 95.71371 13006 ft 346 kts 341°
2026-04-17 01:24 5.60402 95.70541 12610 ft 344 kts 341°
2026-04-17 01:25 5.62644 95.69715 12228 ft 341 kts 341°
2026-04-17 01:25 5.64863 95.68897 11892 ft 338 kts 341°
2026-04-17 01:25 5.67767 95.67826 11453 ft 334 kts 341°
2026-04-17 01:25 5.69240 95.67283 11210 ft 332 kts 341°
2026-04-17 01:26 5.71295 95.66266 10980 ft 328 kts 324°
2026-04-17 01:26 5.72859 95.64631 10700 ft 325 kts 308°
2026-04-17 01:26 5.74192 95.62821 10495 ft 316 kts 307°
2026-04-17 01:26 5.75457 95.61096 10393 ft 299 kts 307°
2026-04-17 01:27 5.76679 95.59453 10129 ft 290 kts 307°
2026-04-17 01:27 5.77875 95.57857 9703 ft 289 kts 308°
2026-04-17 01:27 5.79087 95.56249 9216 ft 288 kts 308°
2026-04-17 01:27 5.80296 95.54652 8775 ft 286 kts 308°
2026-04-17 01:28 5.81497 95.53065 8343 ft 284 kts 308°
2026-04-17 01:28 5.82687 95.51493 7903 ft 282 kts 308°
2026-04-17 01:28 5.83875 95.49923 7471 ft 281 kts 307°
2026-04-17 01:28 5.84716 95.48176 7015 ft 280 kts 280°
2026-04-17 01:29 5.84699 95.46248 6619 ft 276 kts 257°
2026-04-17 01:29 5.83613 95.42603 5933 ft 268 kts 252°
2026-04-17 01:29 5.83072 95.40834 5656 ft 262 kts 252°
2026-04-17 01:30 5.82544 95.39105 5382 ft 258 kts 249°
2026-04-17 01:30 5.81582 95.37615 5105 ft 255 kts 220°
2026-04-17 01:30 5.80049 95.36771 4832 ft 253 kts 193°
2026-04-17 01:30 5.78318 95.36649 4550 ft 250 kts 172°
2026-04-17 01:31 5.76603 95.36951 4266 ft 250 kts 167°
2026-04-17 01:31 5.74896 95.37321 3960 ft 251 kts 167°
2026-04-17 01:31 5.73188 95.37702 3668 ft 251 kts 167°
2026-04-17 01:31 5.71503 95.38082 3366 ft 246 kts 167°
2026-04-17 01:32 5.69851 95.38446 3074 ft 240 kts 167°
2026-04-17 01:32 5.68237 95.38797 2789 ft 235 kts 167°
2026-04-17 01:32 5.66687 95.39132 2556 ft 225 kts 167°
2026-04-17 01:32 5.65162 95.39460 2283 ft 217 kts 167°
2026-04-17 01:33 5.63750 95.39763 2066 ft 202 kts 168°
2026-04-17 01:33 5.62424 95.40032 1993 ft 182 kts 169°
2026-04-17 01:33 5.61208 95.40251 1495 ft 188 kts 172°
2026-04-17 01:33 5.59893 95.40484 1014 ft 189 kts 168°
2026-04-17 01:34 5.58664 95.40742 850 ft 173 kts 167°
2026-04-17 01:34 5.57573 95.40969 786 ft 149 kts 169°
2026-04-17 01:34 5.56567 95.41173 629 ft 148 kts 168°
2026-04-17 01:34 5.55569 95.41371 462 ft 147 kts 169°
2026-04-17 01:35 5.54562 95.41571 259 ft 146 kts 168°
2026-04-17 01:35 5.53561 95.41778 90 ft 146 kts 169°
2026-04-17 01:35 5.52683 95.41962 72 ft 103 kts 168°
2026-04-17 01:35 5.52197 95.42058 68 ft 40 kts 168°
2026-04-17 01:36 5.52099 95.42082 71 ft 6 kts 169°
2026-04-17 01:36 5.52020 95.42097 70 ft 17 kts 169°
2026-04-17 01:36 5.51895 95.42118 71 ft 12 kts 184°
2026-04-17 01:36 5.51846 95.42061 67 ft 12 kts 257°
2026-04-17 01:37 5.51834 95.42002 74 ft 5 kts 255°
2026-04-17 01:37 5.51825 95.41968 69 ft 5 kts 253°
2026-04-17 01:37 5.51815 95.41934 69 ft 5 kts 256°
2026-04-17 01:37 5.51811 95.41914 75 ft 1 kts 257°
2026-04-17 01:38 5.51809 95.41905 64 ft 1 kts 257°
2026-04-17 01:38 5.51805 95.41890 72 ft 4 kts 257°
2026-04-17 01:38 5.51797 95.41856 75 ft 5 kts 256°
2026-04-17 01:38 5.51795 95.41845 75 ft 3 kts 257°
2026-04-17 01:39 5.51792 95.41834 75 ft 0 kts 257°